| time (UTC) | temp F | wind direction | speed knots | gust knots | rain 1hr in | rain 24hr in | rain mn in | humidity % | barometer mb |
| 20260505175051 | 86 | 148 | 1.7 | 8.7 | 0.00 | 0.00 | 0.00 | 3 | 1010.2 |
| 20260505172253 | 84 | 293 | 1.7 | 7.8 | 0.00 | 0.00 | 0.00 | 3 | 1010.3 |
| 20260505172051 | 84 | 293 | 1.7 | 7.8 | 0.00 | 0.00 | 0.00 | 3 | 1010.3 |
| 20260505170551 | 84 | 186 | 2.6 | 5.2 | 0.00 | 0.00 | 0.00 | 3 | 1010.3 |
| 20260505165051 | 84 | 250 | 0.9 | 5.2 | 0.00 | 0.00 | 0.00 | 3 | 1010.7 |
| 20260505163551 | 83 | 157 | 0.0 | 0.9 | 0.00 | 0.00 | 0.00 | 3 | 1010.7 |
| 20260505162053 | 82 | 190 | 1.7 | 8.7 | 0.00 | 0.00 | 0.00 | 3 | 1010.9 |
| 20260505160552 | 81 | 249 | 0.0 | 2.6 | 0.00 | 0.00 | 0.00 | 4 | 1011.3 |
| 20260505152351 | 79 | 0 | 0.0 | 0.0 | 0.00 | 0.00 | 0.00 | 4 | 1011.3 |
| 20260505152051 | 79 | 0 | 0.0 | 0.0 | 0.00 | 0.00 | 0.00 | 4 | 1011.3 |
| 20260505150551 | 78 | 236 | 0.0 | 5.2 | 0.00 | 0.00 | 0.00 | 4 | 1011.6 |
| 20260505140552 | 74 | 209 | 1.7 | 5.2 | 0.00 | 0.00 | 0.00 | 4 | 1012.1 |
| 20260505123552 | 66 | 270 | 0.0 | 1.7 | 0.00 | 0.00 | 0.00 | 6 | 1012.2 |
| 20260505122051 | 65 | 303 | 0.0 | 2.6 | 0.00 | 0.00 | 0.00 | 6 | 1012.0 |
| 20260505120551 | 64 | 0 | 0.0 | 0.9 | 0.00 | 0.00 | 0.00 | 7 | 1011.9 |
| 20260505115051 | 63 | 0 | 0.0 | 0.0 | 0.00 | 0.00 | 0.00 | 7 | 1012.0 |
| 20260505113551 | 61 | 0 | 0.0 | 0.0 | 0.00 | 0.00 | 0.00 | 7 | 1012.1 |
| 20260504205949 | 76 | 338 | 3.5 | 6.1 | 0.00 | 0.00 | 0.00 | 2 | 1010.3 |
| 20260504204450 | 77 | 114 | 0.9 | 6.1 | 0.00 | 0.00 | 0.00 | 2 | 1010.3 |
| 20260504202948 | 77 | 222 | 2.6 | 9.6 | 0.00 | 0.00 | 0.00 | 2 | 1010.3 |
| 20260504201532 | 75 | 204 | 5.2 | 9.6 | 0.00 | 0.00 | 0.00 | 2 | 1010.5 |
| 20260504201450 | 75 | 204 | 5.2 | 9.6 | 0.00 | 0.00 | 0.00 | 2 | 1010.5 |
| 20260504200027 | 75 | 201 | 0.0 | 3.5 | 0.00 | 0.00 | 0.00 | 2 | 1010.6 |
| 20260504195949 | 75 | 201 | 0.0 | 3.5 | 0.00 | 0.00 | 0.00 | 2 | 1010.6 |
| 20260504194449 | 74 | 252 | 1.7 | 9.6 | 0.00 | 0.00 | 0.00 | 2 | 1010.8 |
| 20260504192948 | 74 | 296 | 3.5 | 7.8 | 0.00 | 0.00 | 0.00 | 3 | 1010.8 |
| 20260504191449 | 74 | 214 | 4.3 | 10.4 | 0.00 | 0.00 | 0.00 | 3 | 1011.2 |
| 20260504184449 | 74 | 210 | 2.6 | 7.0 | 0.00 | 0.00 | 0.00 | 3 | 1011.4 |
| 20260504183037 | 73 | 248 | 1.7 | 8.7 | 0.00 | 0.00 | 0.00 | 3 | 1012.0 |
| 20260504182948 | 73 | 248 | 1.7 | 8.7 | 0.00 | 0.00 | 0.00 | 3 | 1012.0 |
| 20260504181450 | 74 | 247 | 0.0 | 7.8 | 0.00 | 0.00 | 0.00 | 3 | 1012.0 |